Weather in Vasilevka

Russia / Nizhny Novgorod Oblast'     54°32′53″N   44°43′09″E
temp.,
°C
wind,
m/s
gust,
m/s
humid.,
%
clouds,
%
prec.,
mm/h
press.,
hPa
HPBL,
m
1 december, wed
wed100:00+1sw101769100 0.0 9891278
03:000sw81374100 0.0 990911
06:000wsw61177100 0.0 991814
09:00−1sw477876 0.0 992796
12:00−1wsw5767100 0.0 992762
15:00−1wsw586985 0.0 992754
18:00−2wsw610705 0.0 993873
21:00−2wsw611665 0.0 994982
2 december, thu
thu200:00−2wsw610685 0.0 996922
03:00−2sw61078100 0.0 997879
06:00−2w61072100 0.1 9981114
09:00−4w696726 0.1 1002995
12:00−3w7960100 0.0 10041093
15:00−3wsw695946 0.0 1005869
18:00−4wsw51160100 0.0 1007744
21:00−3sw61262100 0.0 1006589
3 december, fri
fri300:00−3ssw61492100 0.2 1005650
03:00−2sw61490100 0.4 1005585
06:00−1sw61496100 0.3 1005507
09:00+1sw61398100 0.6 1007550
12:00+2sw61395100 0.0 1008522
15:00+2sw61090100 0.0 1009554
18:00+2ssw51194100 0.0 1010522
21:00+2s61496100 0.1 1009425
4 december, sat
sat400:00+3s71696100 0.0 1008514
03:00+4ssw91987100 0.0 1006718
06:00+3ssw101982100 0.0 1004733
09:00+3ssw91797100 2.1 10041066
12:00+1wsw51187100 0.6 1007704
15:000wsw51076100 0.6 1009516
18:00−1wsw51177100 0.0 1010495
21:00−2wsw511826 0.0 1012580
5 december, sun
sun500:00−3w598598 0.0 1013713
03:00−3w6869100 0.1 1015927
06:00−3w587263 0.0 1015793
09:00−3w577794 0.0 1018828
12:00−3wnw5767100 0.0 1019851
15:00−3wnw476914 0.0 1020745
18:00−4nw5772100 0.1 10211016
21:00−4nnw5672100 0.1 1023771